N1YZ Weather Reports


time (UTC)temp
F
wind
direction
speed
knots
gust
knots
rain 1hr
in
rain 24hr
in
rain mn
in
humidity
%
barometer
mb
20260510110828 63 337 0.0 0.0 0.00 0.00 0.00 99 1035.2
20260510110326 63 337 0.0 0.0 0.00 0.00 0.00 99 1035.3
20260510105821 63 337 0.0 0.0 0.00 0.00 0.00 99 1035.1
20260510105316 63 337 0.0 0.0 0.00 0.00 0.00 99 1035.0
20260510104813 63 337 0.0 0.0 0.00 0.00 0.00 99 1035.0
20260510104310 63 337 0.0 0.0 0.00 0.00 0.00 99 1034.8
20260510103806 63 337 0.0 0.0 0.00 0.00 0.00 99 1034.7
20260510103303 63 337 0.0 0.0 0.00 0.00 0.00 99 1034.8
20260510102758 63 337 0.0 0.0 0.00 0.00 0.00 99 1034.7
20260510102254 63 336 0.0 0.0 0.00 0.00 0.00 99 1034.7
20260510101751 63 336 0.0 0.0 0.00 0.00 0.00 99 1034.5
20260510101250 63 336 0.0 0.0 0.00 0.00 0.00 99 1034.3
20260510100745 63 336 0.0 0.0 0.00 0.00 0.00 99 1034.3
20260510100243 63 336 0.0 0.0 0.00 0.00 0.00 99 1034.3
20260510095738 63 336 0.0 0.0 0.00 0.00 0.00 99 1034.2
20260510095234 63 336 0.0 0.0 0.00 0.00 0.00 99 1034.1
20260510094733 63 336 0.0 0.0 0.00 0.00 0.00 99 1034.2
20260510094228 63 336 0.0 0.0 0.00 0.00 0.00 99 1034.1
20260510093724 63 336 0.0 0.0 0.00 0.00 0.00 99 1033.8
20260510093222 63 335 0.0 0.0 0.00 0.00 0.00 99 1033.8
20260510092718 63 335 0.0 0.0 0.00 0.00 0.00 99 1034.0
20260510092214 63 335 0.0 0.0 0.00 0.00 0.00 99 1034.0
20260510091710 63 335 0.0 0.0 0.00 0.00 0.00 99 1033.7
20260510091206 63 335 0.0 0.0 0.00 0.00 0.00 99 1033.5
20260510090703 63 335 0.0 0.0 0.00 0.00 0.00 99 1033.6
20260510090200 63 335 0.0 0.0 0.00 0.00 0.00 99 1033.6
20260510085655 63 335 0.0 0.0 0.00 0.00 0.00 99 1033.6
20260510085150 63 335 0.0 0.0 0.00 0.00 0.00 99 1033.6
20260510084647 63 335 0.0 0.0 0.00 0.00 0.00 99 1033.3
20260510084143 63 335 0.0 0.0 0.00 0.00 0.00 99 1033.0
20260510083640 63 335 0.0 0.0 0.00 0.00 0.00 99 1033.3
20260510083137 63 334 0.0 0.0 0.00 0.00 0.00 99 1033.2
20260510082633 63 334 0.0 0.0 0.00 0.00 0.00 99 1033.2
20260510082129 63 334 0.0 0.0 0.00 0.00 0.00 99 1033.2
20260510081623 63 334 0.0 0.0 0.00 0.00 0.00 99 1033.2
20260510081119 63 334 0.0 0.0 0.00 0.00 0.00 99 1033.2
20260510080614 63 334 0.0 0.0 0.00 0.00 0.00 99 1033.3
20260510080110 63 334 0.0 0.0 0.00 0.00 0.00 99 1033.3
20260510075602 63 334 0.0 0.0 0.00 0.00 0.00 99 1032.9
20260510075058 63 334 0.0 0.0 0.00 0.00 0.00 99 1033.2
20260510074556 63 334 0.0 0.0 0.00 0.00 0.00 99 1033.1
20260510074051 63 334 0.0 0.0 0.00 0.00 0.00 99 1033.3
20260510073548 63 334 0.0 0.0 0.00 0.00 0.00 99 1033.1
20260510073045 63 333 0.0 0.0 0.00 0.00 0.00 99 1033.3
20260510072541 63 333 0.0 0.0 0.00 0.00 0.00 99 1033.2
20260510072037 63 333 0.0 0.0 0.00 0.00 0.00 99 1033.3
20260510071533 63 333 0.0 0.0 0.00 0.00 0.00 99 1033.2
20260510071032 63 333 0.0 0.0 0.00 0.00 0.00 99 1033.3
20260510070528 63 333 0.0 0.0 0.00 0.00 0.00 99 1033.2
20260510070025 63 333 0.0 0.0 0.00 0.00 0.00 99 1033.3
20260510065521 63 333 0.0 0.0 0.00 0.00 0.00 99 1033.3
20260510065017 63 333 0.0 0.0 0.00 0.00 0.00 99 1033.3
20260510064514 63 333 0.0 0.0 0.00 0.00 0.00 99 1033.2
20260510064011 63 333 0.0 0.0 0.00 0.00 0.00 99 1033.4
20260510063508 63 333 0.0 0.0 0.00 0.00 0.00 99 1033.4
20260510063005 63 333 0.0 0.0 0.00 0.00 0.00 99 1033.7
20260510062501 63 333 0.0 0.0 0.00 0.00 0.00 99 1033.8
20260510061955 63 333 0.0 0.0 0.00 0.00 0.00 99 1033.8
20260510061453 63 338 0.0 0.0 0.00 0.00 0.00 99 1033.9
20260510060949 63 340 0.0 0.0 0.00 0.00 0.00 99 1033.5
20260510060446 63 340 0.0 0.0 0.00 0.00 0.00 99 1033.6
20260510055942 63 340 0.0 0.0 0.00 0.00 0.00 99 1033.4
20260510055438 63 340 0.0 0.0 0.00 0.00 0.00 99 1033.7
20260510054937 63 340 0.0 0.0 0.00 0.00 0.00 99 1033.7
20260510054431 63 340 0.0 0.0 0.00 0.00 0.00 99 1033.6
20260510053927 63 340 0.0 0.0 0.00 0.00 0.00 99 1033.7
20260510053422 63 340 0.0 0.0 0.00 0.00 0.00 99 1033.8
20260510052919 63 340 0.0 0.0 0.00 0.00 0.00 99 1033.7
20260510052415 63 339 0.0 0.0 0.00 0.00 0.00 99 1033.9
20260510051911 63 339 0.0 0.0 0.00 0.00 0.00 99 1034.0
20260510051408 63 338 0.0 0.0 0.00 0.00 0.00 99 1033.8
20260510050904 63 347 0.0 0.0 0.00 0.00 0.00 99 1034.0
20260510050401 63 1 0.0 0.0 0.00 0.00 0.00 99 1033.8
20260510045858 63 1 0.0 0.0 0.00 0.03 0.03 99 1033.8
20260510045355 63 1 0.0 0.0 0.00 0.03 0.03 99 1033.7
20260510044852 64 1 0.0 0.0 0.00 0.03 0.03 99 1033.8
20260510044349 64 1 0.0 0.0 0.00 0.03 0.03 99 1033.9
20260510043845 64 1 0.0 0.0 0.00 0.03 0.03 99 1033.7
20260510043341 64 1 0.0 0.0 0.00 0.03 0.03 99 1033.7
20260510042839 64 1 0.0 0.0 0.00 0.03 0.03 99 1033.7
20260510042335 64 1 0.0 0.0 0.00 0.03 0.03 99 1033.8
20260510041831 64 1 0.0 0.0 0.00 0.03 0.03 99 1033.9
20260510041329 64 1 0.0 0.0 0.00 0.03 0.03 99 1033.9
20260510040826 64 1 0.0 0.0 0.00 0.03 0.03 99 1034.0
20260510040323 64 1 0.0 0.0 0.00 0.03 0.03 99 1033.9
20260510035818 64 1 0.0 0.0 0.00 0.03 0.03 99 1034.1
20260510035314 64 1 0.0 0.0 0.00 0.03 0.03 99 1033.9
20260510034810 64 1 0.0 0.0 0.00 0.03 0.03 99 1034.2
20260510034308 64 1 0.0 0.0 0.00 0.03 0.03 99 1034.1
20260510033804 64 1 0.0 0.0 0.00 0.03 0.03 99 1034.2
20260510033301 64 1 0.0 0.0 0.00 0.03 0.03 99 1034.0
20260510032757 65 1 0.0 0.0 0.00 0.03 0.03 99 1034.2
20260510032254 65 1 0.0 0.0 0.00 0.03 0.03 99 1034.4
20260510031750 65 1 0.0 0.0 0.00 0.03 0.03 99 1034.2
20260510031245 65 1 0.0 0.0 0.00 0.03 0.03 99 1034.1
20260510030744 65 1 0.0 0.0 0.00 0.03 0.03 99 1034.1
20260510030237 65 1 0.0 0.0 0.00 0.03 0.03 99 1033.9
20260510025734 65 1 0.0 0.0 0.00 0.03 0.03 98 1034.0
20260510025231 65 1 0.0 0.0 0.00 0.03 0.03 98 1034.0
20260510024722 65 1 0.0 0.0 0.00 0.03 0.03 98 1033.9
20260510024219 65 1 0.0 0.0 0.00 0.03 0.03 98 1034.1
20260510023714 65 1 0.0 0.0 0.00 0.03 0.03 98 1034.1
20260510023212 66 1 0.0 0.0 0.00 0.03 0.03 98 1034.0
20260510022707 66 1 0.0 0.0 0.00 0.03 0.03 98 1034.0
20260510022156 66 1 0.0 0.0 0.00 0.03 0.03 98 1033.8
20260510021652 66 1 0.0 0.0 0.00 0.03 0.03 98 1033.5
20260510021149 66 1 0.0 0.0 0.00 0.03 0.03 98 1033.5
20260510020644 66 1 0.0 0.0 0.00 0.03 0.03 98 1033.5
20260510020140 66 1 0.0 0.0 0.00 0.03 0.03 98 1033.5
20260510015636 66 1 0.0 0.0 0.00 0.03 0.03 97 1033.3
20260510015133 66 1 0.0 0.0 0.00 0.03 0.03 97 1033.4
20260510014628 66 1 0.0 0.0 0.00 0.03 0.03 97 1033.4
20260510014125 66 1 0.0 0.0 0.00 0.03 0.03 97 1033.1
20260510013619 66 1 0.0 0.0 0.00 0.03 0.03 97 1032.8
20260510013115 66 1 0.0 0.0 0.00 0.03 0.03 97 1032.8
20260510012614 66 1 0.0 0.0 0.00 0.03 0.03 96 1032.7
20260510012111 66 1 0.0 0.0 0.00 0.03 0.03 96 1032.5
20260510011610 66 1 0.0 0.0 0.00 0.03 0.03 96 1032.6
20260510011106 66 1 0.0 0.0 0.00 0.03 0.03 96 1032.6
20260510010603 67 1 0.0 0.0 0.00 0.03 0.03 95 1032.6
20260510010100 67 1 0.0 0.0 0.00 0.03 0.03 95 1032.4
20260510005555 67 1 0.0 0.0 0.00 0.03 0.03 95 1032.4
20260510005053 67 1 0.0 0.0 0.00 0.03 0.03 95 1032.4
20260510004551 67 1 0.0 0.0 0.00 0.03 0.03 95 1032.3
20260510004049 67 1 0.0 0.0 0.00 0.03 0.03 94 1032.2
20260510003545 67 1 0.0 0.0 0.00 0.03 0.03 94 1032.1
20260510003041 67 1 0.0 0.0 0.00 0.03 0.03 94 1032.2
20260510002536 67 1 0.0 0.0 0.00 0.03 0.03 93 1032.1
20260510002034 68 1 0.0 0.0 0.00 0.03 0.03 93 1032.1
20260510001531 68 1 0.0 0.0 0.00 0.03 0.03 93 1032.2
20260510001030 68 1 0.0 0.0 0.00 0.03 0.03 92 1032.2
20260510000530 68 2 0.0 0.0 0.00 0.03 0.03 92 1032.0
20260510000027 68 2 0.0 0.0 0.00 0.03 0.03 92 1032.0
20260509235524 68 2 0.0 0.0 0.00 0.03 0.03 92 1031.9
20260509235021 68 2 0.0 0.0 0.00 0.03 0.03 91 1031.8
20260509234517 68 2 0.0 0.0 0.00 0.03 0.03 91 1031.7
20260509234016 68 2 0.0 0.0 0.00 0.03 0.03 90 1031.6
20260509233513 68 2 0.0 0.0 0.00 0.03 0.03 90 1031.7
20260509233010 68 2 0.0 0.0 0.00 0.03 0.03 90 1031.5
20260509232507 68 2 0.0 0.0 0.00 0.03 0.03 90 1031.3
20260509232003 69 2 0.0 0.0 0.00 0.03 0.03 89 1031.6
20260509231459 69 2 0.0 0.0 0.00 0.03 0.03 88 1031.3
20260509230957 69 2 0.0 0.0 0.00 0.03 0.03 88 1031.4
20260509230454 69 2 0.0 0.0 0.00 0.03 0.03 88 1031.4
20260509225950 70 2 0.0 0.0 0.00 0.03 0.03 88 1031.4
20260509225446 70 2 0.0 0.0 0.00 0.03 0.03 87 1031.2
20260509224942 70 2 0.0 0.0 0.00 0.03 0.03 87 1031.1
20260509224438 70 2 0.0 0.0 0.00 0.03 0.03 86 1031.1
20260509223935 70 2 0.0 0.0 0.00 0.03 0.03 86 1031.1
20260509223431 71 2 0.0 0.0 0.00 0.03 0.03 85 1031.0
20260509222929 71 2 0.0 0.0 0.00 0.03 0.03 84 1031.1
20260509222424 71 2 0.0 0.0 0.00 0.03 0.03 84 1030.9
20260509221920 71 2 0.0 0.0 0.00 0.03 0.03 84 1031.1
20260509221417 71 2 0.0 0.0 0.00 0.03 0.03 84 1031.0
20260509220913 71 2 0.0 0.0 0.00 0.03 0.03 85 1030.7
20260509220409 71 2 0.0 0.0 0.00 0.03 0.03 84 1030.9
20260509215905 71 2 0.0 0.0 0.00 0.03 0.03 83 1031.2
20260509215401 71 2 0.0 0.0 0.00 0.03 0.03 84 1031.1
20260509214858 71 2 0.0 0.0 0.00 0.03 0.03 84 1030.7
20260509214355 72 2 0.0 0.0 0.00 0.03 0.03 83 1030.9
20260509213853 72 2 0.0 0.0 0.00 0.03 0.03 83 1031.0
20260509213347 72 2 0.0 0.0 0.00 0.03 0.03 83 1030.8
20260509212846 71 2 0.0 0.0 0.00 0.03 0.03 82 1031.0
20260509212343 71 1 0.0 0.0 0.00 0.03 0.03 83 1030.6
20260509211839 71 2 0.0 0.0 0.00 0.03 0.03 84 1030.8
20260509211335 72 2 0.0 0.0 0.00 0.03 0.03 85 1030.5
20260509210831 72 3 0.0 0.0 0.00 0.03 0.03 83 1030.9
20260509210329 71 1 0.0 0.0 0.00 0.03 0.03 83 1030.8
20260509205828 72 3 0.0 0.0 0.00 0.03 0.03 83 1030.9
20260509205323 72 4 0.0 0.0 0.00 0.03 0.03 83 1030.9
20260509204820 72 3 0.0 0.0 0.00 0.03 0.03 82 1030.5
20260509204316 72 5 0.0 0.0 0.00 0.03 0.03 81 1030.7
20260509203813 72 6 0.0 0.0 0.00 0.03 0.03 81 1030.9
20260509203310 72 6 0.0 0.0 0.00 0.03 0.03 81 1030.7
20260509202806 72 6 0.0 0.0 0.00 0.03 0.03 81 1031.1
20260509202306 73 4 0.0 0.0 0.00 0.03 0.03 80 1031.0
20260509201801 73 4 0.0 0.0 0.00 0.03 0.03 76 1030.9
20260509201259 74 30 0.0 0.0 0.00 0.03 0.03 76 1030.9
20260509200755 75 41 0.0 0.0 0.00 0.03 0.03 77 1030.7
20260509200250 74 11 0.0 0.0 0.00 0.03 0.03 74 1030.6
20260509195746 73 353 0.0 0.0 0.00 0.03 0.03 75 1030.8
20260509195242 72 16 0.0 0.0 0.00 0.03 0.03 79 1030.9
20260509194736 73 7 0.0 0.0 0.00 0.03 0.03 81 1030.9
20260509194233 74 336 0.0 0.0 0.00 0.03 0.03 78 1031.0
20260509193730 73 0 0.0 0.0 0.00 0.03 0.03 80 1031.4
20260509193229 73 345 0.0 0.0 0.00 0.03 0.03 82 1031.2
20260509192726 72 1 0.0 0.0 0.00 0.03 0.03 78 1031.1
20260509192221 74 9 0.0 0.0 0.00 0.03 0.03 81 1031.1
20260509191716 75 9 0.0 0.0 0.00 0.03 0.03 77 1031.2
20260509191213 74 347 0.0 0.0 0.00 0.03 0.03 75 1031.2
20260509190709 75 29 0.0 0.0 0.00 0.03 0.03 77 1031.4
20260509190207 76 3 0.0 0.0 0.00 0.03 0.03 74 1031.1
20260509185704 75 9 0.0 0.0 0.00 0.03 0.03 77 1031.4
20260509185200 73 15 0.0 0.0 0.00 0.03 0.03 82 1031.2
20260509184658 73 21 0.0 0.0 0.00 0.03 0.03 79 1031.4
20260509184155 72 7 0.0 0.0 0.00 0.03 0.03 81 1031.5
20260509183651 73 349 0.0 0.0 0.00 0.03 0.03 80 1031.4
20260509183146 73 348 0.0 0.0 0.00 0.03 0.03 81 1031.7
20260509182642 72 4 0.0 0.0 0.00 0.03 0.03 80 1031.8
20260509182140 71 351 0.0 0.0 0.00 0.03 0.03 81 1031.7
20260509181638 71 355 0.0 0.0 0.00 0.03 0.03 88 1031.8
20260509181135 71 353 0.0 0.0 0.00 0.03 0.03 86 1032.1
20260509180631 69 356 0.0 0.0 0.00 0.03 0.03 84 1032.1
20260509180128 69 351 0.0 0.9 0.00 0.03 0.03 89 1032.2
20260509175623 68 4 0.0 0.0 0.00 0.03 0.03 88 1032.4
20260509175121 68 5 0.0 0.0 0.00 0.03 0.03 89 1032.3
20260509174617 68 342 0.0 0.0 0.00 0.03 0.03 92 1032.3
20260509174112 68 9 0.0 0.0 0.00 0.03 0.03 90 1032.5
20260509173608 68 348 0.0 0.0 0.00 0.03 0.03 91 1032.5
20260509173104 67 4 0.0 0.0 0.00 0.03 0.03 92 1032.6
20260509172601 67 4 0.0 0.0 0.00 0.03 0.03 93 1032.6
20260509172057 67 9 0.0 0.0 0.00 0.03 0.03 92 1032.5
20260509171553 67 8 0.0 0.0 0.00 0.03 0.03 92 1032.5
20260509171049 67 16 0.0 0.0 0.00 0.03 0.03 92 1032.4
20260509170545 67 16 0.0 0.0 0.00 0.03 0.03 93 1032.4
20260509170041 67 350 0.0 0.0 0.00 0.03 0.03 94 1032.4
20260509165540 67 8 0.0 0.0 0.00 0.03 0.03 93 1032.4
20260509165035 67 26 0.0 0.0 0.00 0.03 0.03 93 1032.3
20260509164532 67 338 0.0 0.0 0.00 0.03 0.03 95 1032.5
20260509164027 66 359 0.0 0.0 0.00 0.03 0.03 99 1032.6
20260509163526 66 23 0.0 0.0 0.00 0.03 0.03 99 1032.4
20260509163020 65 350 0.0 0.0 0.00 0.03 0.03 99 1033.0
20260509162518 65 350 0.0 0.0 0.00 0.03 0.03 99 1032.8
20260509162014 65 351 0.0 0.0 0.00 0.03 0.03 99 1032.7
20260509161510 64 351 0.0 0.0 0.00 0.03 0.03 99 1032.7
20260509161005 64 351 0.0 0.0 0.00 0.03 0.03 99 1032.5
20260509160501 64 351 0.0 0.0 0.00 0.03 0.03 99 1032.9
20260509155956 63 355 0.0 0.0 0.00 0.03 0.03 99 1032.7
20260509155453 63 355 0.0 0.0 0.00 0.03 0.03 99 1032.7
20260509154949 63 354 0.0 0.0 0.00 0.03 0.03 99 1032.9
20260509154446 63 355 0.0 0.0 0.00 0.03 0.03 99 1032.7
20260509153943 63 354 0.0 0.0 0.00 0.03 0.03 99 1032.6
20260509153440 63 358 0.0 0.0 0.00 0.03 0.03 99 1032.8
20260509152937 63 350 0.0 0.0 0.00 0.03 0.03 99 1032.7
20260509152433 62 350 0.0 0.0 0.00 0.03 0.03 99 1032.8
20260509151930 63 359 0.0 0.0 0.00 0.03 0.03 99 1032.9
20260509151426 62 18 0.0 0.0 0.00 0.03 0.03 99 1033.1
20260509150925 62 3 0.0 0.0 0.00 0.03 0.03 99 1032.9
20260509150421 62 13 0.0 0.0 0.00 0.03 0.03 99 1032.5
20260509145919 62 351 0.0 0.0 0.00 0.03 0.03 99 1032.6
20260509145414 62 348 0.9 0.9 0.00 0.03 0.03 99 1032.7
20260509144910 62 354 0.0 0.0 0.00 0.03 0.03 99 1032.6
20260509144407 62 126 0.9 1.7 0.00 0.03 0.03 99 1032.5
20260509143903 62 347 0.0 0.0 0.00 0.03 0.03 99 1032.7
20260509143401 62 349 0.0 0.0 0.00 0.03 0.03 99 1032.6
20260509142857 62 350 0.0 0.0 0.00 0.03 0.03 99 1032.7
20260509142354 61 7 0.0 0.0 0.00 0.03 0.03 99 1032.6
20260509141849 61 0 0.0 0.0 0.00 0.03 0.03 99 1032.6
20260509141347 61 355 0.0 0.0 0.00 0.03 0.03 99 1032.8
20260509140843 61 4 0.0 0.0 0.00 0.03 0.03 99 1032.8
20260509140340 61 7 0.0 0.0 0.00 0.03 0.03 99 1032.7
20260509135838 61 7 0.0 0.0 0.00 0.03 0.03 99 1032.8
20260509135335 61 2 0.0 0.0 0.00 0.03 0.03 99 1032.9
20260509134833 61 36 0.0 0.0 0.00 0.03 0.03 99 1032.8
20260509134330 61 23 0.0 0.0 0.00 0.03 0.03 99 1033.1
20260509133826 61 10 0.0 0.0 0.00 0.03 0.03 99 1032.8
20260509133323 61 357 0.9 0.9 0.00 0.03 0.03 99 1032.8
20260509132822 61 11 0.0 0.0 0.00 0.03 0.03 99 1032.7
20260509132320 61 12 0.0 0.0 0.00 0.03 0.03 99 1032.2
20260509131817 61 5 0.0 0.0 0.00 0.03 0.03 99 1032.3
20260509131314 61 4 0.0 0.0 0.00 0.03 0.03 99 1032.1
20260509130810 61 3 0.0 0.0 0.00 0.03 0.03 99 1032.2
20260509130306 61 9 0.0 0.0 0.00 0.03 0.03 99 1032.0
20260509125802 61 9 0.0 0.0 0.00 0.03 0.03 99 1032.0
20260509125258 61 9 0.0 0.0 0.00 0.03 0.03 99 1032.1
20260509124755 61 9 0.0 0.0 0.00 0.03 0.03 99 1031.9
20260509124252 61 9 0.0 0.0 0.00 0.03 0.03 99 1031.7
20260509123750 61 348 0.0 0.0 0.00 0.03 0.03 99 1031.7
20260509123247 61 348 0.0 0.0 0.00 0.03 0.03 99 1031.9
20260509122743 61 355 0.0 0.0 0.00 0.03 0.03 99 1031.9
20260509122240 61 355 0.0 0.0 0.00 0.03 0.03 99 1031.9
20260509121737 61 355 0.0 0.0 0.00 0.03 0.03 99 1031.9
20260509121234 60 355 0.0 0.0 0.00 0.03 0.03 99 1031.6
20260509120732 60 346 0.0 0.0 0.00 0.03 0.03 99 1031.8
20260509120230 60 346 0.0 0.0 0.00 0.03 0.03 99 1031.7
20260509115728 60 5 0.0 0.0 0.00 0.03 0.03 99 1031.5
20260509115224 60 6 0.0 0.0 0.00 0.03 0.03 99 1031.6
20260509114723 60 356 0.0 0.0 0.00 0.03 0.03 99 1031.6
20260509114221 60 357 0.0 0.0 0.00 0.03 0.03 99 1031.7
20260509113719 60 358 0.0 0.0 0.00 0.03 0.03 99 1031.6
20260509113216 60 3 0.0 0.0 0.00 0.03 0.03 99 1031.9
20260509112713 60 3 0.0 0.0 0.00 0.03 0.03 99 1031.7
20260509112210 60 2 0.0 0.0 0.00 0.03 0.03 99 1031.7
20260509111707 60 6 0.0 0.0 0.00 0.03 0.03 99 1031.7
20260509111204 60 5 0.0 0.0 0.00 0.03 0.03 99 1031.8